sat.trackr.live / text

‹ back to catalog

STARLINK-6101

NORAD 56115 · 2023-046Y

PAYLOAD ACTIVE UNKNOWN

§ Identity

Operator
Country
US
Launch date
2023-03-29
Launch site
AFETR
Launch vehicle
Mass (kg)
RCS (m²)

Purposes: comms

External: N2YO · Heavens-Above · Gunter

§ Orbital elements

Epoch: 2026-05-24T23:02:27.528576Z

Period
94.27 min
Inclination
43.0058°
Eccentricity
0.0001471
Mean motion
15.27576606 rev/d
Perigee alt
482.0 km
Apogee alt
484.1 km
Semi-major
6,861.2 km
B*
6.1287e-6
RAAN
87.6118°
Arg perigee
285.4595°
Mean anomaly
74.6094°
Rev number
17,373

§ Raw data

STARLINK-61011 56115U 23046Y   26144.96004084 -.00000094  00000+0  61287-5 0  99932 56115  43.0058  87.6118 0001471 285.4595  74.6094 15.27576606173738

JSON: /api/v1/satellites/56115 · /tle

For live sub-satellite position, see the globe view (requires WebGL).

§ Visibility from observer

Set your observer location to see the next 7 days of passes ≥ 10°. The values pass through the URL so the page stays shareable.

No JS? Fill the form by hand. The geolocation button needs JavaScript.